SCP
0 0 0 0 0 0 0 0 0 0 0 0 0 0 0 0 0 0 0 0 0 -0 0 0 0 0 -0 -0 0 -0 0 0 -0 0 0 0 0 -0 -0 0 0 0 0 0
0 0 0 0 0 0 0 0 0 0 0 0 0 0 0 0 0 0 0 0 0 0 0 0 0 0 0 -0 0 -0 0 0 -0 0 0 0 0 0 0 0 0 0 -0 0
0 0 0 0 0 0 0 0 0 0 0 0 0 0 0 0 0 0 0 0 0 0 0 0 0 0 0 -0 0 0 0 0 0 0 0 0 0 0 -0 -0 0 -0 0 -0
0 0 0 0 0 0 0 0 0 0 0 0 0 0 0 0 0 0 0 0 0 0 0 0 0 0 0 0 0 0 0 0 0 0 0 0 0 0 0 0 0 0 -0 0
0 0 0 0 0 0 0 0 0 0 0 0 0 0 0 0 0 0 0 0 0 0 0 0 0 0 0 0 0 0 0 0 0 0 0 -0 0 0 0 0 0 0 0 -0
0 0 0 0 0 0 0 0 0 0 0 0 0 0 0 0 0 0 0 0 0 0 0 0 0 0 0 0 0 0 0 0 -0 0 0 -0 -0 0 0 0 0 0 0 0
0 0 0 0 0 0 0 0 0 0 0 0 0 0 0 0 0 0 0 0 0 0 0 0 0 0 0 0 0 0 0 0 0 0 0 0 0 0 0 0 0 0 0 0
0 0 0 0 0 0 0 0 0 0 0 0 0 0 0 0 0 0 0 0 0 0 0 0 0 0 0 0 0 0 0 0 0 0 -0 0 0 0 0 0 0 0 0 0
0 0 0 0 0 0 0 0 0 0 0 0 0 0 0 0 0 0 0 0 0 0 0 0 0 0 0 0 0 0 0 0 0 0 0 0 0 0 0 0 0 0 0 0
0 0 0 0 0 0 0 0 0 0 0 0 0 0 0 0 0 0 0 0 0 0 0 0 0 0 0 0 0 0 0 0 0 0 0 0 0 0 0 0 0 0 0 0
0 0 0 0 0 0 0 0 0 0 0 0 0 0 0 0 0 0 0 0 0 0 0 0 0 0 0 0 0 0 0 0 0 0 0 0 0 0 0 0 0 0 1 1
0 0 0 0 0 0 0 0 0 0 0 0 0 0 0 0 0 0 0 0 0 0 0 0 0 0 0 0 0 0 0 0 0 0 0 0 0 0 0 0 0 1 1 0
0 0 0 0 0 0 0 0 0 0 0 0 0 0 0 0 0 0 0 0 0 0 0 0 0 0 0 0 0 0 0 0 0 0 0 0 0 0 0 0 0 0 0 0
0 0 0 0 0 0 0 0 0 0 0 0 0 0 0 0 0 0 0 0 0 0 0 0 0 0 0 0 0 0 0 0 0 0 0 0 0 0 0 0 0 0 0 0
0 0 0 0 0 0 0 0 0 0 0 0 0 0 0 0 0 0 0 0 0 0 0 0 0 0 0 0 0 0 0 0 0 0 0 0 0 0 0 0 0 0 0 0
0 0 0 0 0 0 0 0 0 0 0 0 0 0 0 0 0 0 0 0 0 0 0 0 0 0 0 0 0 0 0 0 0 0 0 0 0 0 0 0 0 0 0 0
0 0 0 0 0 0 0 0 0 0 0 0 0 0 0 0 0 0 0 0 0 0 0 0 0 0 0 0 0 0 0 0 0 0 0 0 0 0 0 0 0 0 0 0
0 0 0 0 0 0 0 0 0 0 0 0 0 0 0 0 0 0 0 0 0 0 0 0 0 0 0 0 0 0 0 0 0 0 0 0 0 0 0 0 0 0 0 0
0 0 0 0 0 0 0 0 0 0 0 0 0 0 0 0 0 0 0 0 0 0 0 0 0 0 0 0 0 0 0 0 0 0 0 0 0 0 0 0 0 0 0 0
0 0 0 0 0 0 0 0 0 0 0 0 0 0 0 0 0 0 0 0 0 0 0 0 0 0 0 0 0 0 0 0 0 0 0 0 0 0 0 0 0 0 0 0
0 0 0 0 0 0 0 0 0 0 0 0 0 0 0 0 0 0 0 0 0 0 0 0 0 0 0 0 0 0 0 0 0 0 0 0 0 0 0 0 0 0 0 1
0 0 0 0 0 0 0 0 0 0 0 0 0 0 0 0 0 0 0 0 0 0 0 0 0 0 0 0 0 0 0 0 0 0 0 0 0 0 0 0 0 0 1 1
0 0 0 0 0 0 0 0 0 0 0 0 0 0 0 0 0 0 0 0 0 0 0 0 0 0 0 0 0 0 0 0 0 0 0 0 0 0 0 0 0 0 0 0
0 0 0 0 0 0 0 0 0 0 0 0 0 0 0 0 0 0 0 0 0 0 0 0 0 0 0 0 0 0 0 0 0 0 0 0 0 0 0 0 0 0 0 0
0 0 0 0 0 0 0 0 0 0 0 0 0 0 0 0 0 0 0 0 0 0 0 0 0 0 0 0 0 0 0 0 0 0 0 0 0 0 0 0 0 0 0 0
0 0 0 0 0 0 0 0 0 0 0 0 0 0 0 0 0 0 0 0 0 0 0 0 0 0 0 0 0 0 0 0 0 0 0 0 0 0 0 0 0 0 0 0
0 0 0 0 0 0 0 0 0 0 0 0 0 0 0 0 0 0 0 0 0 0 0 0 0 0 0 0 0 0 0 0 0 -0 0 0 0 0 0 0 0 0 0 0
Wind_Speed_500mb
30 31 31 31 32 31 27 4 8 13 15 15 7 14 2 5 7 9 10 9 12 17 14 14 13 10 4 16 31 25 16 6 22 18 10 12 18 30 27 14 21 5 14 4
30 28 28 26 27 30 31 10 4 14 7 11 15 8 10 8 8 6 7 11 4 4 5 7 8 8 7 23 28 21 19 11 19 20 15 11 19 15 17 11 5 9 15 15
30 29 26 24 21 23 24 8 8 11 15 9 12 10 14 9 10 11 6 1 5 11 7 6 13 16 9 20 18 3 13 4 16 12 16 8 11 11 18 24 14 15 14 21
34 32 27 23 18 19 16 9 2 8 10 17 12 10 3 12 10 10 8 11 6 8 7 8 10 9 21 14 13 14 17 14 6 13 11 3 5 9 16 23 6 10 20 6
31 34 31 20 17 15 6 9 8 6 9 8 13 12 14 9 6 7 17 10 10 4 8 11 13 13 6 9 17 22 15 8 9 10 6 6 8 6 13 12 7 7 6 19
37 29 31 26 17 12 5 9 8 6 10 12 13 11 6 8 4 6 3 5 11 13 13 12 9 4 8 7 18 19 18 14 14 12 4 9 17 13 6 9 5 4 12 24
45 39 35 36 25 19 11 9 6 10 9 12 9 5 1 6 4 2 3 2 6 7 6 3 5 6 11 14 8 5 14 15 8 9 12 17 17 9 2 7 5 5 6 13
46 43 37 31 31 25 17 12 4 7 9 7 10 10 4 6 8 11 3 10 3 2 7 11 12 13 11 11 7 4 9 12 8 10 20 3 11 11 12 16 16 14 12 15
30 47 41 33 29 25 20 14 14 6 13 8 3 5 2 2 10 14 10 6 1 6 6 8 12 11 4 10 13 1 6 11 13 13 19 12 5 19 10 6 20 26 17 18
25 30 43 34 30 24 21 11 15 5 11 1 3 2 5 3 4 1 9 4 6 6 9 9 9 8 5 9 10 9 16 13 21 18 19 11 16 12 15 20 0 15 22 18
27 27 40 37 34 27 23 12 18 8 8 6 4 3 4 2 3 3 7 8 5 6 8 6 6 7 6 8 4 8 10 13 15 19 16 24 10 15 21 9 5 11 19 17
29 28 40 39 35 30 25 10 16 17 9 7 7 9 8 3 3 9 8 7 6 7 1 3 3 8 6 6 12 8 12 7 11 5 8 8 2 6 3 5 7 14 18 18
28 29 40 43 36 32 29 12 15 9 7 12 7 7 7 8 14 10 4 5 4 5 2 2 2 6 5 10 12 3 8 2 7 4 8 6 2 10 4 4 3 13 17 19
30 34 40 38 35 34 30 14 17 12 5 8 11 7 2 3 8 14 8 6 6 5 2 4 5 7 5 2 6 10 11 5 1 8 4 3 7 5 2 3 5 10 12 13
30 35 42 38 33 34 30 24 21 18 4 8 10 8 6 3 8 19 17 9 4 2 5 7 6 0 7 6 4 11 11 6 12 8 12 14 7 4 3 6 13 16 18 20
28 33 42 42 33 34 26 8 20 21 16 6 7 6 8 10 16 20 18 9 5 2 6 4 3 1 8 7 11 7 11 9 13 17 11 12 14 12 5 4 4 10 15 18
25 29 41 42 29 35 16 7 11 32 18 5 8 14 9 18 21 15 13 11 6 4 3 7 4 8 7 8 13 13 15 17 18 17 18 23 24 23 13 17 20 21 23 25
27 30 40 39 23 33 17 4 11 36 8 5 5 7 17 17 18 14 12 13 10 6 2 5 9 6 9 7 9 11 18 24 22 19 19 28 32 38 42 38 36 37 37 36
29 36 40 25 21 15 17 17 24 25 6 5 6 11 10 17 14 10 13 9 9 6 8 6 6 8 10 7 3 8 16 19 27 31 31 32 32 29 24 26 35 42 48 50
42 39 12 12 25 32 34 13 10 8 8 6 6 3 9 18 22 11 12 9 5 8 7 6 8 10 12 5 0 6 15 20 25 29 27 15 16 17 23 26 27 28 28 26
35 9 7 31 45 11 9 6 5 10 9 12 8 10 15 6 14 12 5 6 7 6 9 7 8 7 16 5 4 8 15 20 22 20 19 17 19 25 27 27 24 23 22 25
13 22 36 19 9 6 4 3 6 10 9 15 17 16 9 10 4 6 9 6 6 4 9 6 7 10 11 4 6 11 13 17 20 20 20 20 21 23 25 27 28 28 29 29
37 11 6 5 6 4 10 14 9 9 17 18 23 16 12 8 5 5 6 10 8 5 7 6 6 14 7 5 8 11 14 14 17 19 20 20 23 25 26 28 28 28 27 25
8 6 7 1 8 9 4 2 10 13 20 31 33 18 9 6 7 4 7 4 5 6 8 8 10 12 7 4 6 10 14 16 18 24 27 27 26 26 27 26 27 29 30 28
7 5 4 7 7 3 7 10 21 23 36 30 24 13 6 7 6 3 3 9 8 7 2 6 12 10 5 2 2 6 9 13 20 29 31 34 32 28 28 26 24 23 24 25
5 6 5 5 11 16 17 20 29 30 27 18 8 7 7 5 4 10 10 5 6 6 6 8 1 2 9 11 6 7 12 17 23 30 34 35 32 30 29 23 21 22 22 22
4 3 3 5 16 21 21 23 24 21 16 5 3 6 5 7 6 6 5 2 7 6 4 9 9 12 14 11 11 14 17 18 29 30 34 33 29 27 23 22 24 25 24 24
Wind_Direction_500mb
278 290 297 309 323 336 342 285 226 184 155 212 226 230 221 355 257 205 229 271 171 180 185 202 222 206 240 190 171 192 212 298 163 163 108 290 228 235 218 225 178 247 311 11
269 280 289 303 321 340 353 299 272 185 183 233 206 200 240 257 251 196 200 178 235 161 157 190 222 183 78 169 185 179 183 243 137 151 151 157 211 200 244 248 302 167 278 107
266 266 276 291 311 328 340 282 212 180 219 258 274 224 218 222 210 258 245 130 180 170 160 188 152 149 110 173 188 334 215 243 309 136 71 103 178 195 223 229 227 157 237 116
254 257 264 275 294 315 332 243 166 330 191 207 220 229 273 217 189 212 224 174 219 198 149 148 130 140 136 163 180 196 242 133 128 75 81 139 286 213 196 225 321 273 101 112
250 255 257 261 274 301 303 284 303 223 271 207 219 161 195 222 166 251 168 232 157 191 97 19 112 142 211 146 177 203 228 125 165 98 140 213 171 155 184 203 239 206 184 117
244 253 261 255 256 271 267 284 286 278 156 198 215 180 166 169 272 165 265 294 193 137 77 46 53 28 98 116 171 172 195 155 214 133 175 217 207 160 150 127 185 312 200 88
240 249 260 260 240 234 241 276 271 255 204 226 203 180 242 224 246 300 95 200 249 59 307 227 198 160 116 106 112 230 187 196 200 110 182 231 77 79 285 268 189 202 124 131
238 240 248 246 230 221 226 249 238 262 258 258 198 211 266 248 180 199 149 80 38 328 187 206 174 177 180 133 72 99 237 197 162 210 221 95 178 187 201 225 215 190 165 153
240 231 228 229 222 216 223 243 221 263 291 171 15 245 325 191 166 159 125 64 55 206 237 201 220 195 81 176 166 218 184 246 244 191 273 243 284 132 189 216 248 176 197 178
235 223 212 220 209 216 215 235 207 220 265 231 273 264 360 317 245 144 131 51 160 220 199 203 204 171 360 229 227 185 200 229 229 207 243 250 96 152 180 220 69 172 189 187
229 224 208 209 199 208 205 223 213 194 268 283 222 295 354 325 360 273 48 192 157 176 202 247 140 256 146 262 312 262 247 237 217 243 259 241 131 150 225 10 53 152 168 172
226 218 200 201 197 200 197 212 215 216 244 299 245 239 232 216 43 5 28 42 70 42 242 208 153 202 195 296 234 183 243 281 315 304 30 57 252 18 317 313 150 148 166 175
223 212 197 198 196 190 188 200 198 198 258 255 237 207 226 243 230 226 305 106 75 88 75 34 87 229 280 213 228 252 167 34 259 277 78 15 328 202 240 214 217 169 172 178
219 205 199 199 189 182 185 185 198 192 254 268 128 127 118 195 186 190 180 121 92 106 86 222 226 237 230 204 31 273 38 184 144 257 88 181 137 185 200 239 216 203 203 209
210 205 200 193 181 175 186 194 199 203 214 348 110 140 89 32 162 166 160 138 130 152 211 224 197 124 240 189 272 239 197 263 252 300 38 326 32 71 351 253 238 233 235 244
202 202 197 188 172 170 167 183 225 208 207 283 194 121 116 110 127 143 169 178 175 221 243 222 211 303 271 262 250 357 298 294 310 296 330 306 296 284 282 243 266 242 243 250
198 196 192 185 171 178 160 177 184 189 184 239 188 154 152 138 132 128 140 151 165 227 180 226 243 206 246 268 255 44 333 322 312 295 299 284 268 264 234 291 284 279 274 269
189 186 185 179 178 188 171 142 163 168 180 216 230 118 161 171 176 150 165 168 182 184 196 198 229 172 222 255 78 338 330 320 303 297 288 270 273 273 276 279 278 274 270 269
167 163 160 171 171 159 165 136 149 164 166 247 234 180 143 172 158 133 164 207 205 134 226 204 226 202 221 98 331 339 350 345 326 315 293 280 268 286 281 283 276 276 274 268
142 153 144 154 153 140 133 125 151 189 206 224 245 145 140 193 173 163 155 195 190 209 149 145 228 238 120 144 289 334 339 340 341 343 340 319 275 270 288 295 291 289 282 284
144 134 98 137 137 110 71 108 208 168 197 192 171 208 147 151 197 157 243 176 173 229 131 246 189 221 144 147 75 5 354 349 346 339 339 335 300 297 297 297 299 296 292 288
141 120 121 104 79 114 110 133 213 218 172 164 172 153 129 128 117 188 175 197 199 245 117 237 238 101 123 94 18 358 346 347 345 346 341 333 326 319 311 308 303 300 296 294
121 89 82 88 55 138 194 188 180 175 164 166 161 146 142 138 159 120 195 199 198 120 216 229 44 109 114 66 42 32 18 2 359 353 342 331 325 326 324 313 306 304 299 295
101 114 109 202 165 231 279 113 118 115 145 149 158 140 156 127 155 147 193 88 220 224 228 202 119 139 123 64 27 19 16 16 6 359 350 341 332 326 326 320 312 302 299 297
118 121 117 199 284 233 152 119 122 128 134 135 135 121 160 121 142 216 153 185 230 231 229 85 126 151 160 108 335 342 347 353 350 343 339 337 331 326 320 318 317 310 306 299
113 123 147 176 206 144 137 127 123 138 137 125 117 134 164 149 180 187 200 214 221 108 85 77 22 325 323 311 290 302 319 337 337 334 332 329 326 324 317 315 311 315 312 306
71 87 208 201 117 113 117 120 128 139 161 102 139 165 111 125 200 199 195 248 68 80 19 347 323 302 299 301 282 290 319 343 338 334 329 325 322 321 316 316 313 310 312 302
Wind_Speed_850mb
30 31 31 31 32 31 27 4 8 13 15 15 7 14 2 5 7 9 10 9 12 17 14 14 13 10 4 16 31 25 16 6 22 18 10 12 18 30 27 14 21 5 14 4
30 28 28 26 27 30 31 10 4 14 7 11 15 8 10 8 8 6 7 11 4 4 5 7 8 8 7 23 28 21 19 11 19 20 15 11 19 15 17 11 5 9 15 15
30 29 26 24 21 23 24 8 8 11 15 9 12 10 14 9 10 11 6 1 5 11 7 6 13 16 9 20 18 3 13 4 16 12 16 8 11 11 18 24 14 15 14 21
34 32 27 23 18 19 16 9 2 8 10 17 12 10 3 12 10 10 8 11 6 8 7 8 10 9 21 14 13 14 17 14 6 13 11 3 5 9 16 23 6 10 20 6
31 34 31 20 17 15 6 9 8 6 9 8 13 12 14 9 6 7 17 10 10 4 8 11 13 13 6 9 17 22 15 8 9 10 6 6 8 6 13 12 7 7 6 19
37 29 31 26 17 12 5 9 8 6 10 12 13 11 6 8 4 6 3 5 11 13 13 12 9 4 8 7 18 19 18 14 14 12 4 9 17 13 6 9 5 4 12 24
45 39 35 36 25 19 11 9 6 10 9 12 9 5 1 6 4 2 3 2 6 7 6 3 5 6 11 14 8 5 14 15 8 9 12 17 17 9 2 7 5 5 6 13
46 43 37 31 31 25 17 12 4 7 9 7 10 10 4 6 8 11 3 10 3 2 7 11 12 13 11 11 7 4 9 12 8 10 20 3 11 11 12 16 16 14 12 15
30 47 41 33 29 25 20 14 14 6 13 8 3 5 2 2 10 14 10 6 1 6 6 8 12 11 4 10 13 1 6 11 13 13 19 12 5 19 10 6 20 26 17 18
25 30 43 34 30 24 21 11 15 5 11 1 3 2 5 3 4 1 9 4 6 6 9 9 9 8 5 9 10 9 16 13 21 18 19 11 16 12 15 20 0 15 22 18
27 27 40 37 34 27 23 12 18 8 8 6 4 3 4 2 3 3 7 8 5 6 8 6 6 7 6 8 4 8 10 13 15 19 16 24 10 15 21 9 5 11 19 17
29 28 40 39 35 30 25 10 16 17 9 7 7 9 8 3 3 9 8 7 6 7 1 3 3 8 6 6 12 8 12 7 11 5 8 8 2 6 3 5 7 14 18 18
28 29 40 43 36 32 29 12 15 9 7 12 7 7 7 8 14 10 4 5 4 5 2 2 2 6 5 10 12 3 8 2 7 4 8 6 2 10 4 4 3 13 17 19
30 34 40 38 35 34 30 14 17 12 5 8 11 7 2 3 8 14 8 6 6 5 2 4 5 7 5 2 6 10 11 5 1 8 4 3 7 5 2 3 5 10 12 13
30 35 42 38 33 34 30 24 21 18 4 8 10 8 6 3 8 19 17 9 4 2 5 7 6 0 7 6 4 11 11 6 12 8 12 14 7 4 3 6 13 16 18 20
28 33 42 42 33 34 26 8 20 21 16 6 7 6 8 10 16 20 18 9 5 2 6 4 3 1 8 7 11 7 11 9 13 17 11 12 14 12 5 4 4 10 15 18
25 29 41 42 29 35 16 7 11 32 18 5 8 14 9 18 21 15 13 11 6 4 3 7 4 8 7 8 13 13 15 17 18 17 18 23 24 23 13 17 20 21 23 25
27 30 40 39 23 33 17 4 11 36 8 5 5 7 17 17 18 14 12 13 10 6 2 5 9 6 9 7 9 11 18 24 22 19 19 28 32 38 42 38 36 37 37 36
29 36 40 25 21 15 17 17 24 25 6 5 6 11 10 17 14 10 13 9 9 6 8 6 6 8 10 7 3 8 16 19 27 31 31 32 32 29 24 26 35 42 48 50
42 39 12 12 25 32 34 13 10 8 8 6 6 3 9 18 22 11 12 9 5 8 7 6 8 10 12 5 0 6 15 20 25 29 27 15 16 17 23 26 27 28 28 26
35 9 7 31 45 11 9 6 5 10 9 12 8 10 15 6 14 12 5 6 7 6 9 7 8 7 16 5 4 8 15 20 22 20 19 17 19 25 27 27 24 23 22 25
13 22 36 19 9 6 4 3 6 10 9 15 17 16 9 10 4 6 9 6 6 4 9 6 7 10 11 4 6 11 13 17 20 20 20 20 21 23 25 27 28 28 29 29
37 11 6 5 6 4 10 14 9 9 17 18 23 16 12 8 5 5 6 10 8 5 7 6 6 14 7 5 8 11 14 14 17 19 20 20 23 25 26 28 28 28 27 25
8 6 7 1 8 9 4 2 10 13 20 31 33 18 9 6 7 4 7 4 5 6 8 8 10 12 7 4 6 10 14 16 18 24 27 27 26 26 27 26 27 29 30 28
7 5 4 7 7 3 7 10 21 23 36 30 24 13 6 7 6 3 3 9 8 7 2 6 12 10 5 2 2 6 9 13 20 29 31 34 32 28 28 26 24 23 24 25
5 6 5 5 11 16 17 20 29 30 27 18 8 7 7 5 4 10 10 5 6 6 6 8 1 2 9 11 6 7 12 17 23 30 34 35 32 30 29 23 21 22 22 22
4 3 3 5 16 21 21 23 24 21 16 5 3 6 5 7 6 6 5 2 7 6 4 9 9 12 14 11 11 14 17 18 29 30 34 33 29 27 23 22 24 25 24 24
Wind_Direction_850mb
278 290 297 309 323 336 342 285 226 184 155 212 226 230 221 355 257 205 229 271 171 180 185 202 222 206 240 190 171 192 212 298 163 163 108 290 228 235 218 225 178 247 311 11
269 280 289 303 321 340 353 299 272 185 183 233 206 200 240 257 251 196 200 178 235 161 157 190 222 183 78 169 185 179 183 243 137 151 151 157 211 200 244 248 302 167 278 107
266 266 276 291 311 328 340 282 212 180 219 258 274 224 218 222 210 258 245 130 180 170 160 188 152 149 110 173 188 334 215 243 309 136 71 103 178 195 223 229 227 157 237 116
254 257 264 275 294 315 332 243 166 330 191 207 220 229 273 217 189 212 224 174 219 198 149 148 130 140 136 163 180 196 242 133 128 75 81 139 286 213 196 225 321 273 101 112
250 255 257 261 274 301 303 284 303 223 271 207 219 161 195 222 166 251 168 232 157 191 97 19 112 142 211 146 177 203 228 125 165 98 140 213 171 155 184 203 239 206 184 117
244 253 261 255 256 271 267 284 286 278 156 198 215 180 166 169 272 165 265 294 193 137 77 46 53 28 98 116 171 172 195 155 214 133 175 217 207 160 150 127 185 312 200 88
240 249 260 260 240 234 241 276 271 255 204 226 203 180 242 224 246 300 95 200 249 59 307 227 198 160 116 106 112 230 187 196 200 110 182 231 77 79 285 268 189 202 124 131
238 240 248 246 230 221 226 249 238 262 258 258 198 211 266 248 180 199 149 80 38 328 187 206 174 177 180 133 72 99 237 197 162 210 221 95 178 187 201 225 215 190 165 153
240 231 228 229 222 216 223 243 221 263 291 171 15 245 325 191 166 159 125 64 55 206 237 201 220 195 81 176 166 218 184 246 244 191 273 243 284 132 189 216 248 176 197 178
235 223 212 220 209 216 215 235 207 220 265 231 273 264 360 317 245 144 131 51 160 220 199 203 204 171 360 229 227 185 200 229 229 207 243 250 96 152 180 220 69 172 189 187
229 224 208 209 199 208 205 223 213 194 268 283 222 295 354 325 360 273 48 192 157 176 202 247 140 256 146 262 312 262 247 237 217 243 259 241 131 150 225 10 53 152 168 172
226 218 200 201 197 200 197 212 215 216 244 299 245 239 232 216 43 5 28 42 70 42 242 208 153 202 195 296 234 183 243 281 315 304 30 57 252 18 317 313 150 148 166 175
223 212 197 198 196 190 188 200 198 198 258 255 237 207 226 243 230 226 305 106 75 88 75 34 87 229 280 213 228 252 167 34 259 277 78 15 328 202 240 214 217 169 172 178
219 205 199 199 189 182 185 185 198 192 254 268 128 127 118 195 186 190 180 121 92 106 86 222 226 237 230 204 31 273 38 184 144 257 88 181 137 185 200 239 216 203 203 209
210 205 200 193 181 175 186 194 199 203 214 348 110 140 89 32 162 166 160 138 130 152 211 224 197 124 240 189 272 239 197 263 252 300 38 326 32 71 351 253 238 233 235 244
202 202 197 188 172 170 167 183 225 208 207 283 194 121 116 110 127 143 169 178 175 221 243 222 211 303 271 262 250 357 298 294 310 296 330 306 296 284 282 243 266 242 243 250
198 196 192 185 171 178 160 177 184 189 184 239 188 154 152 138 132 128 140 151 165 227 180 226 243 206 246 268 255 44 333 322 312 295 299 284 268 264 234 291 284 279 274 269
189 186 185 179 178 188 171 142 163 168 180 216 230 118 161 171 176 150 165 168 182 184 196 198 229 172 222 255 78 338 330 320 303 297 288 270 273 273 276 279 278 274 270 269
167 163 160 171 171 159 165 136 149 164 166 247 234 180 143 172 158 133 164 207 205 134 226 204 226 202 221 98 331 339 350 345 326 315 293 280 268 286 281 283 276 276 274 268
142 153 144 154 153 140 133 125 151 189 206 224 245 145 140 193 173 163 155 195 190 209 149 145 228 238 120 144 289 334 339 340 341 343 340 319 275 270 288 295 291 289 282 284
144 134 98 137 137 110 71 108 208 168 197 192 171 208 147 151 197 157 243 176 173 229 131 246 189 221 144 147 75 5 354 349 346 339 339 335 300 297 297 297 299 296 292 288
141 120 121 104 79 114 110 133 213 218 172 164 172 153 129 128 117 188 175 197 199 245 117 237 238 101 123 94 18 358 346 347 345 346 341 333 326 319 311 308 303 300 296 294
121 89 82 88 55 138 194 188 180 175 164 166 161 146 142 138 159 120 195 199 198 120 216 229 44 109 114 66 42 32 18 2 359 353 342 331 325 326 324 313 306 304 299 295
101 114 109 202 165 231 279 113 118 115 145 149 158 140 156 127 155 147 193 88 220 224 228 202 119 139 123 64 27 19 16 16 6 359 350 341 332 326 326 320 312 302 299 297
118 121 117 199 284 233 152 119 122 128 134 135 135 121 160 121 142 216 153 185 230 231 229 85 126 151 160 108 335 342 347 353 350 343 339 337 331 326 320 318 317 310 306 299
113 123 147 176 206 144 137 127 123 138 137 125 117 134 164 149 180 187 200 214 221 108 85 77 22 325 323 311 290 302 319 337 337 334 332 329 326 324 317 315 311 315 312 306
71 87 208 201 117 113 117 120 128 139 161 102 139 165 111 125 200 199 195 248 68 80 19 347 323 302 299 301 282 290 319 343 338 334 329 325 322 321 316 316 313 310 312 302